Weather History for Appleton, MN

Change the Weather History Date:

Wednesday, October 10, 2012

  Actual Average Record
Temperature  
Mean Temperature 40 °F -  
Max Temperature 57 °F 59 °F 82 °F (2013)
Min Temperature 24 °F 36 °F 24 °F (2012)
Degree Days  
Heating Degree Days 24    
Moisture  
Dew Point 24 °F    
Average Humidity 53    
Maximum Humidity 100    
Minimum Humidity 21    
Precipitation  
Precipitation 0.00 in - - ()
Sea Level Pressure  
Sea Level Pressure 29.98 in    
Wind  
Wind Speed 7 mph (WSW)    
Max Wind Speed 18 mph    
Max Gust Speed 30 mph    
Visibility 10 miles    
Events      
Averages and records for this station are not official NWS values.
T = Trace of Precipitation, MM = Missing Value Source: NWS Daily Summary

Daily Weather History Graph

Daily Weather History Graph

Search for Another Location

Airport:

Trip Planner

Search our weather history database for the weather conditions in past years. The results will help you decide how hot, cold, wet, or windy it might be!

Date:

Astronomy

Oct. 10, 2012 Rise Set
Actual Time 7:34 AM CDT 6:46 PM CDT
Civil Twilight 7:04 AM CDT 7:16 PM CDT
Nautical Twilight 6:30 AM CDT 7:50 PM CDT
Astronomical Twilight 5:56 AM CDT 8:24 PM CDT
Moon 1:57 AM CDT (10/10) 4:02 PM CDT (10/10)
Length of Visible Light 12h 11m
Length of Day
11h 12m
Waning Crescent, 27% of the Moon is Illuminated
Oct 10
Waning Crescent
Oct 15
New
Oct 21
First Quarter
Oct 29
Full
Nov 6
Last Quarter

Hourly Weather History & Observations

Time (CDT) Temp. Windchill Dew Point Humidity Pressure Visibility Wind Dir Wind Speed Gust Speed Precip Events Conditions
12:13 AM 41.0 °F 36.4 °F 26.6 °F 57% 30.03 in 10.0 mi WNW 6.9 mph - N/A   Overcast
12:34 AM 35.6 °F 29.9 °F 26.6 °F 70% 30.03 in 10.0 mi West 6.9 mph - N/A   Scattered Clouds
12:54 AM 33.8 °F 28.6 °F 24.8 °F 70% 30.03 in 10.0 mi West 5.8 mph - N/A   Scattered Clouds
1:14 AM 33.8 °F 27.7 °F 24.8 °F 70% 30.03 in 10.0 mi WNW 6.9 mph - N/A   Scattered Clouds
1:34 AM 30.2 °F 23.4 °F 24.8 °F 80% 30.04 in 10.0 mi West 6.9 mph - N/A   Clear
1:54 AM 30.2 °F 24.3 °F 24.8 °F 80% 30.05 in 10.0 mi West 5.8 mph - N/A   Scattered Clouds
2:14 AM 32.0 °F 26.4 °F 24.8 °F 75% 30.05 in 10.0 mi WNW 5.8 mph - N/A   Scattered Clouds
2:33 AM 28.4 °F 22.2 °F 23.0 °F 80% 30.05 in 10.0 mi West 5.8 mph - N/A   Clear
2:54 AM 28.4 °F 21.2 °F 23.0 °F 80% 30.05 in 10.0 mi WNW 6.9 mph - N/A   Clear
3:14 AM 26.6 °F 19.1 °F 23.0 °F 86% 30.05 in 10.0 mi West 6.9 mph - N/A   Clear
3:34 AM 26.6 °F 18.2 °F 23.0 °F 86% 30.05 in 10.0 mi WSW 8.1 mph - N/A   Clear
3:53 AM 26.6 °F 18.2 °F 24.8 °F 93% 30.05 in 10.0 mi West 8.1 mph - N/A   Scattered Clouds
4:13 AM 28.4 °F 22.2 °F 26.6 °F 93% 30.06 in 10.0 mi West 5.8 mph - N/A   Mostly Cloudy
4:34 AM 28.4 °F 23.3 °F 24.8 °F 86% 30.06 in 10.0 mi WNW 4.6 mph - N/A   Scattered Clouds
4:53 AM 26.6 °F 22.6 °F 24.8 °F 93% 30.06 in 10.0 mi WNW 3.5 mph - N/A   Clear
5:13 AM 24.8 °F 19.1 °F 21.2 °F 86% 30.06 in 10.0 mi West 4.6 mph - N/A   Clear
5:34 AM 24.8 °F 17.9 °F 24.8 °F 100% 30.06 in 10.0 mi West 5.8 mph - N/A   Clear
5:54 AM 24.8 °F 19.1 °F 21.2 °F 86% 30.06 in 10.0 mi WSW 4.6 mph - N/A   Clear
6:13 AM 26.6 °F 19.1 °F 24.8 °F 93% 30.06 in 10.0 mi WSW 6.9 mph - N/A   Clear
6:33 AM 26.6 °F 17.5 °F 24.8 °F 93% 30.08 in 10.0 mi West 9.2 mph - N/A   Clear
6:53 AM 26.6 °F 20.0 °F 24.8 °F 93% 30.08 in 10.0 mi WSW 5.8 mph - N/A   Clear
7:34 AM 26.6 °F 19.1 °F 24.8 °F 93% 30.08 in 10.0 mi SW 6.9 mph - N/A   Scattered Clouds
7:54 AM 30.2 °F 26.7 °F 28.4 °F 93% 30.08 in 10.0 mi SW 3.5 mph - N/A   Mostly Cloudy
8:13 AM 30.2 °F 25.4 °F 28.4 °F 93% 30.08 in 10.0 mi WSW 4.6 mph - N/A   Scattered Clouds
8:33 AM 32.0 °F 27.5 °F 30.2 °F 93% 30.08 in 7.0 mi SW 4.6 mph - N/A   Clear
8:53 AM 35.6 °F 30.7 °F 30.2 °F 81% 30.08 in 10.0 mi SSW 5.8 mph - N/A   Clear
9:14 AM 35.6 °F 32.8 °F 30.2 °F 81% 30.08 in 10.0 mi SW 3.5 mph - N/A   Clear
9:34 AM 37.4 °F 32.8 °F 30.2 °F 75% 30.08 in 10.0 mi SW 5.8 mph - N/A   Clear
9:54 AM 39.2 °F 34.2 °F 30.2 °F 70% 30.08 in 10.0 mi SW 6.9 mph - N/A   Clear
10:14 AM 41.0 °F 34.3 °F 30.2 °F 65% 30.08 in 10.0 mi SW 11.5 mph - N/A   Clear
10:35 AM 44.6 °F 39.7 °F 28.4 °F 53% 30.08 in 10.0 mi West 9.2 mph - N/A   Clear
10:53 AM 44.6 °F 40.2 °F 28.4 °F 53% 30.08 in 10.0 mi WSW 8.1 mph - N/A   Clear
11:14 AM 48.2 °F - 28.4 °F 46% 30.07 in 10.0 mi WSW 6.9 mph - N/A   Clear
11:34 AM 48.2 °F - 26.6 °F 43% 30.07 in 10.0 mi West 8.1 mph - N/A   Clear
11:53 AM 50.0 °F - 26.6 °F 40% 30.06 in 10.0 mi WSW 6.9 mph - N/A   Clear
12:13 PM 51.8 °F - 24.8 °F 35% 30.07 in 10.0 mi West 11.5 mph - N/A   Clear
12:34 PM 53.6 °F - 21.2 °F 28% 30.06 in 10.0 mi WSW 10.4 mph - N/A   Clear
12:53 PM 53.6 °F - 21.2 °F 28% 30.04 in 10.0 mi West 10.4 mph - N/A   Clear
1:14 PM 55.4 °F - 17.6 °F 23% 30.04 in 10.0 mi West 12.7 mph 20.7 mph N/A   Scattered Clouds
1:33 PM 55.4 °F - 19.4 °F 25% 30.03 in 10.0 mi WSW 10.4 mph 19.6 mph N/A   Scattered Clouds
1:54 PM 53.6 °F - 19.4 °F 26% 30.02 in 10.0 mi SW 10.4 mph - N/A   Scattered Clouds
2:13 PM 55.4 °F - 19.4 °F 25% 30.01 in 10.0 mi West 8.1 mph - N/A   Scattered Clouds
2:33 PM 53.6 °F - 19.4 °F 26% 30.00 in 10.0 mi West 10.4 mph - N/A   Mostly Cloudy
2:54 PM 55.4 °F - 17.6 °F 23% 29.99 in 10.0 mi WSW 12.7 mph 19.6 mph N/A   Overcast
3:13 PM 55.4 °F - 17.6 °F 23% 29.98 in 10.0 mi WSW 10.4 mph - N/A   Mostly Cloudy
3:33 PM 55.4 °F - 17.6 °F 23% 29.97 in 10.0 mi West 8.1 mph - N/A   Scattered Clouds
3:53 PM 55.4 °F - 17.6 °F 23% 29.95 in 10.0 mi WSW 6.9 mph - N/A   Scattered Clouds
4:13 PM 55.4 °F - 19.4 °F 25% 29.93 in 10.0 mi SW 5.8 mph - N/A   Overcast
4:33 PM 55.4 °F - 19.4 °F 25% 29.92 in 10.0 mi WSW 6.9 mph - N/A   Scattered Clouds
4:53 PM 57.2 °F - 19.4 °F 23% 29.92 in 10.0 mi WSW 9.2 mph - N/A   Scattered Clouds
5:15 PM 57.2 °F - 19.4 °F 23% 29.91 in - SW 5.8 mph - N/A   Unknown
5:34 PM 57.2 °F - 17.6 °F 21% 29.90 in 10.0 mi SSW 4.6 mph - N/A   Scattered Clouds
5:54 PM 57.2 °F - 19.4 °F 23% 29.88 in 10.0 mi SSE 6.9 mph - N/A   Clear
6:14 PM 55.4 °F - 19.4 °F 25% 29.88 in 10.0 mi SE 6.9 mph - N/A   Clear
6:33 PM 55.4 °F - 19.4 °F 25% 29.87 in 10.0 mi SE 6.9 mph - N/A   Clear
6:54 PM 53.6 °F - 19.4 °F 26% 29.86 in 10.0 mi SSE 5.8 mph - N/A   Clear
7:14 PM 53.6 °F - 21.2 °F 28% 29.85 in 10.0 mi SSE 6.9 mph - N/A   Clear
7:33 PM 53.6 °F - 21.2 °F 28% 29.85 in 10.0 mi SSE 6.9 mph - N/A   Clear
7:54 PM 53.6 °F - 21.2 °F 28% 29.84 in 10.0 mi SSE 8.1 mph - N/A   Scattered Clouds
8:14 PM 51.8 °F - 21.2 °F 30% 29.83 in 10.0 mi SSE 10.4 mph - N/A   Scattered Clouds
8:34 PM 51.8 °F - 21.2 °F 30% 29.82 in 10.0 mi SSE 9.2 mph - N/A   Clear
8:54 PM 51.8 °F - 23.0 °F 33% 29.81 in 10.0 mi SSE 8.1 mph - N/A   Clear
9:13 PM 53.6 °F - 24.8 °F 33% 29.80 in 10.0 mi South 10.4 mph - N/A   Scattered Clouds
9:34 PM 53.6 °F - 26.6 °F 35% 29.79 in 10.0 mi South 10.4 mph - N/A   Clear
9:54 PM 53.6 °F - 26.6 °F 35% 29.78 in 10.0 mi South 10.4 mph - N/A   Clear
10:14 PM 53.6 °F - 26.6 °F 35% 29.78 in 10.0 mi SSW 10.4 mph - N/A   Clear
10:34 PM 53.6 °F - 28.4 °F 38% 29.77 in 10.0 mi SSW 9.2 mph - N/A   Clear
10:54 PM 53.6 °F - 28.4 °F 38% 29.77 in 10.0 mi SSW 4.6 mph - N/A   Clear
11:14 PM 55.4 °F - 28.4 °F 36% 29.77 in 10.0 mi SW 5.8 mph - N/A   Clear
11:33 PM 55.4 °F - 28.4 °F 36% 29.81 in 10.0 mi NW 18.4 mph 29.9 mph N/A   Clear
11:54 PM 53.6 °F - 28.4 °F 38% 29.80 in 10.0 mi NNW 8.1 mph - N/A   Scattered Clouds